When you browse on this site, cookies collect data to enhance your experience and personalize the content and advertising you see.
Visit our Privacy Policy to learn more. By continuing to use the site, you agree to this use of cookies and data.
  • In Romania
  • List of Countries
  • For 7 days
  • Water Temperature
  • Satellite Maps
  • Weather Map
  • Weather Widgets
  • user-avatar
    Login

    Hourly Weather Artashat

    Today, 17 June, Monday

    Time Temperature Precipitation Wind Pressure Humidity
    00:00 +16°C° 0 mm 1 mps 601 mmHg 50%
    01:00 +15°C° 0 mm 1 mps 601 mmHg 52%
    02:00 +14°C° 0 mm 0 mps 600 mmHg 54%
    03:00 +13°C° 0 mm 0 mps 600 mmHg 54%
    04:00 +14°C° 0 mm 0 mps 600 mmHg 55%
    05:00 +15°C° 0 mm 0 mps 601 mmHg 56%
    06:00 +16°C° 0 mm 0 mps 602 mmHg 56%
    07:00 +18°C° 0 mm 0 mps 602 mmHg 50%
    08:00 +19°C° 0 mm 0 mps 603 mmHg 44%
    09:00 +23°C° 0 mm 1 mps 603 mmHg 39%
    10:00 +24°C° 0 mm 1 mps 603 mmHg 37%
    11:00 +24°C° 0 mm 1 mps 603 mmHg 35%
    12:00 +25°C° 0 mm 2 mps 603 mmHg 33%
    13:00 +24°C° 0.7 mm 2 mps 603 mmHg 40%
    14:00 +21°C° 0.7 mm 2 mps 602 mmHg 47%
    15:00 +19°C° 0.7 mm 2 mps 601 mmHg 53%
    16:00 +19°C° 0.3 mm 2 mps 601 mmHg 55%
    17:00 +19°C° 0.3 mm 2 mps 601 mmHg 56%
    18:00 +19°C° 0.3 mm 1 mps 601 mmHg 58%
    19:00 +18°C° 0 mm 1 mps 601 mmHg 63%
    20:00 +18°C° 0 mm 1 mps 601 mmHg 67%
    21:00 +15°C° 0 mm 0 mps 601 mmHg 72%
    22:00 +15°C° 0 mm 1 mps 601 mmHg 72%
    23:00 +15°C° 0 mm 1 mps 601 mmHg 72%

    Tomorrow, 18 June, Tuesday

    Time Temperature Precipitation Wind Pressure Humidity
    00:00 +15°C° 0 mm 1 mps 601 mmHg 72%
    01:00 +14°C° 0 mm 1 mps 601 mmHg 73%
    02:00 +12°C° 0 mm 0 mps 600 mmHg 74%
    03:00 +12°C° 0 mm 0 mps 600 mmHg 75%
    04:00 +13°C° 0 mm 0 mps 601 mmHg 72%
    05:00 +14°C° 0 mm 0 mps 601 mmHg 69%
    06:00 +15°C° 0 mm 0 mps 601 mmHg 66%
    07:00 +16°C° 0 mm 0 mps 602 mmHg 59%
    08:00 +17°C° 0 mm 0 mps 602 mmHg 53%
    09:00 +21°C° 0 mm 1 mps 603 mmHg 46%
    10:00 +22°C° 0 mm 1 mps 603 mmHg 42%
    11:00 +23°C° 0 mm 1 mps 603 mmHg 37%
    12:00 +24°C° 0 mm 2 mps 603 mmHg 33%
    13:00 +24°C° 0 mm 2 mps 603 mmHg 32%
    14:00 +24°C° 0 mm 2 mps 603 mmHg 32%
    15:00 +25°C° 0 mm 2 mps 602 mmHg 32%
    16:00 +24°C° 0 mm 2 mps 602 mmHg 34%
    17:00 +24°C° 0 mm 2 mps 602 mmHg 35%
    18:00 +24°C° 0 mm 1 mps 602 mmHg 37%
    19:00 +22°C° 0.2 mm 1 mps 602 mmHg 43%
    20:00 +20°C° 0.2 mm 1 mps 602 mmHg 49%
    21:00 +19°C° 0.2 mm 1 mps 601 mmHg 54%
    22:00 +18°C° 0.2 mm 1 mps 601 mmHg 57%
    23:00 +15°C° 0.2 mm 0 mps 601 mmHg 60%

    Day after tomorrow, 19 June, Wednesday

    Time Temperature Precipitation Wind Pressure Humidity
    00:00 +14°C° 0.2 mm 0 mps 601 mmHg 62%
    01:00 +14°C° 0.1 mm 0 mps 600 mmHg 64%
    02:00 +13°C° 0.1 mm 0 mps 600 mmHg 66%
    03:00 +13°C° 0.1 mm 0 mps 600 mmHg 68%
    04:00 +13°C° 0 mm 0 mps 600 mmHg 66%
    05:00 +14°C° 0 mm 0 mps 600 mmHg 65%
    06:00 +15°C° 0 mm 0 mps 601 mmHg 63%
    07:00 +18°C° 0.2 mm 1 mps 601 mmHg 59%
    08:00 +19°C° 0.2 mm 1 mps 601 mmHg 55%
    09:00 +20°C° 0.2 mm 1 mps 602 mmHg 50%
    10:00 +20°C° 0.2 mm 2 mps 602 mmHg 47%
    11:00 +21°C° 0.2 mm 2 mps 602 mmHg 43%
    12:00 +24°C° 0.2 mm 3 mps 602 mmHg 39%
    13:00 +24°C° 0.2 mm 3 mps 602 mmHg 37%
    14:00 +24°C° 0.2 mm 3 mps 602 mmHg 35%
    15:00 +25°C° 0.2 mm 3 mps 602 mmHg 33%
    16:00 +24°C° 0.2 mm 3 mps 602 mmHg 38%
    17:00 +21°C° 0.2 mm 4 mps 601 mmHg 43%
    18:00 +20°C° 0.2 mm 4 mps 601 mmHg 48%
    19:00 +19°C° 0 mm 3 mps 601 mmHg 50%
    20:00 +18°C° 0 mm 2 mps 601 mmHg 53%
    21:00 +17°C° 0 mm 2 mps 601 mmHg 55%
    22:00 +16°C° 0 mm 1 mps 601 mmHg 57%
    23:00 +16°C° 0 mm 1 mps 600 mmHg 59%

    20 June, Thursday

    Time Temperature Precipitation Wind Pressure Humidity
    00:00 +15°C° 0 mm 1 mps 600 mmHg 60%
    01:00 +14°C° 0 mm 0 mps 600 mmHg 62%
    02:00 +13°C° 0 mm 0 mps 600 mmHg 64%
    03:00 +13°C° 0 mm 0 mps 599 mmHg 65%
    04:00 +14°C° 0 mm 0 mps 600 mmHg 64%
    05:00 +15°C° 0 mm 0 mps 600 mmHg 62%
    06:00 +16°C° 0 mm 0 mps 601 mmHg 60%
    07:00 +19°C° 0 mm 1 mps 601 mmHg 55%
    08:00 +20°C° 0 mm 1 mps 601 mmHg 50%
    09:00 +20°C° 0 mm 2 mps 602 mmHg 46%
    10:00 +21°C° 0 mm 3 mps 602 mmHg 42%
    11:00 +22°C° 0 mm 3 mps 602 mmHg 39%
    12:00 +24°C° 0 mm 3 mps 602 mmHg 36%
    13:00 +25°C° 0 mm 3 mps 602 mmHg 35%
    14:00 +25°C° 0 mm 3 mps 602 mmHg 34%
    15:00 +26°C° 0 mm 3 mps 601 mmHg 33%
    16:00 +25°C° 0.4 mm 4 mps 601 mmHg 38%
    17:00 +22°C° 0.4 mm 4 mps 600 mmHg 43%
    18:00 +21°C° 0.4 mm 5 mps 600 mmHg 49%
    19:00 +20°C° 1.2 mm 4 mps 600 mmHg 54%
    20:00 +18°C° 1.2 mm 3 mps 600 mmHg 60%
    21:00 +17°C° 1.2 mm 2 mps 599 mmHg 66%
    22:00 +16°C° 0.4 mm 2 mps 599 mmHg 67%
    23:00 +16°C° 0.4 mm 1 mps 599 mmHg 69%

    21 June, Friday

    Time Temperature Precipitation Wind Pressure Humidity
    00:00 +15°C° 0.4 mm 1 mps 599 mmHg 70%
    01:00 +15°C° 0.8 mm 1 mps 599 mmHg 73%
    02:00 +14°C° 0.8 mm 1 mps 599 mmHg 76%
    03:00 +14°C° 0.8 mm 1 mps 598 mmHg 78%
    04:00 +14°C° 0.3 mm 1 mps 599 mmHg 76%
    05:00 +15°C° 0.3 mm 1 mps 599 mmHg 74%
    06:00 +14°C° 0.3 mm 0 mps 599 mmHg 71%
    07:00 +16°C° 0.1 mm 1 mps 600 mmHg 67%
    08:00 +19°C° 0.1 mm 1 mps 600 mmHg 62%
    09:00 +20°C° 0.1 mm 1 mps 601 mmHg 58%
    10:00 +20°C° 0.4 mm 2 mps 601 mmHg 54%
    11:00 +21°C° 0.4 mm 2 mps 601 mmHg 50%
    12:00 +23°C° 0.4 mm 2 mps 601 mmHg 46%
    13:00 +24°C° 0.2 mm 2 mps 601 mmHg 43%
    14:00 +24°C° 0.2 mm 2 mps 602 mmHg 41%
    15:00 +25°C° 0.2 mm 3 mps 602 mmHg 39%
    16:00 +25°C° 0.1 mm 2 mps 602 mmHg 40%
    17:00 +24°C° 0.1 mm 2 mps 602 mmHg 42%
    18:00 +24°C° 0.1 mm 2 mps 602 mmHg 43%
    19:00 +21°C° 0.1 mm 2 mps 602 mmHg 48%
    20:00 +21°C° 0.1 mm 1 mps 601 mmHg 53%
    21:00 +19°C° 0.1 mm 1 mps 601 mmHg 59%
    22:00 +19°C° 0.1 mm 1 mps 601 mmHg 61%
    23:00 +18°C° 0.1 mm 1 mps 601 mmHg 64%

    22 June, Saturday

    Time Temperature Precipitation Wind Pressure Humidity
    00:00 +16°C° 0.1 mm 1 mps 601 mmHg 67%
    01:00 +16°C° 0 mm 1 mps 601 mmHg 69%
    02:00 +14°C° 0 mm 0 mps 600 mmHg 71%
    03:00 +14°C° 0 mm 0 mps 600 mmHg 73%
    04:00 +14°C° 0 mm 0 mps 601 mmHg 70%
    05:00 +15°C° 0 mm 0 mps 601 mmHg 68%
    06:00 +15°C° 0 mm 0 mps 602 mmHg 66%
    07:00 +18°C° 0.1 mm 1 mps 602 mmHg 63%
    08:00 +18°C° 0.1 mm 2 mps 602 mmHg 59%
    09:00 +20°C° 0.1 mm 2 mps 603 mmHg 55%
    10:00 +21°C° 0.2 mm 2 mps 603 mmHg 51%
    11:00 +22°C° 0.2 mm 3 mps 603 mmHg 47%
    12:00 +24°C° 0.2 mm 3 mps 604 mmHg 43%
    13:00 +25°C° 0.1 mm 3 mps 604 mmHg 42%
    14:00 +25°C° 0.1 mm 3 mps 604 mmHg 40%
    15:00 +26°C° 0.1 mm 3 mps 604 mmHg 38%
    16:00 +25°C° 0.1 mm 3 mps 604 mmHg 40%
    17:00 +25°C° 0.1 mm 2 mps 603 mmHg 42%
    18:00 +24°C° 0.1 mm 2 mps 603 mmHg 45%
    19:00 +21°C° 0.3 mm 2 mps 603 mmHg 50%
    20:00 +21°C° 0.3 mm 1 mps 603 mmHg 56%
    21:00 +19°C° 0.3 mm 1 mps 603 mmHg 61%
    22:00 +18°C° 0.6 mm 1 mps 603 mmHg 65%
    23:00 +18°C° 0.6 mm 1 mps 602 mmHg 69%
    Show more